BRASILSAT B4

Last updated on Thu Jun 10 2021 03:57:00 GMT+0000 (Coordinated Universal Time)

1 26469U 00046A 21160.29099056 -.00000240 00000-0 00000+0 0 9993 2 26469 4.7920 75.8858 0017349 26.2589 190.8663 1.00049155 76245
UTC large
Height (km)
Speed (km/s)
/
Latitude / Longitude
Inclination (degrees)
Orbital Period (minutes)
Azimuth
Elevation
Range (km)
Doppler Factor

Next 0 passes for location: London (51.5072 / 0.1276)

Sorry there are no passes over London.
BRASILSAT B4